Weather History for Ainsworth, NE

Change the Weather History Date:

Saturday, November 3, 2012

  Actual Average Record
Temperature  
Mean Temperature 39 °F -  
Max Temperature 52 °F 49 °F 68 °F (1996)
Min Temperature 26 °F 29 °F 21 °F (2011)
Degree Days  
Heating Degree Days 26    
Moisture  
Dew Point 33 °F    
Average Humidity 83    
Maximum Humidity 99    
Minimum Humidity 53    
Precipitation  
Precipitation 0.00 in - - ()
Sea Level Pressure  
Sea Level Pressure 30.16 in    
Wind  
Wind Speed 5 mph (WNW)    
Max Wind Speed 9 mph    
Max Gust Speed -    
Visibility 9 miles    
Events Fog    
Averages and records for this station are not official NWS values.
T = Trace of Precipitation, MM = Missing Value Source: NWS Daily Summary

Daily Weather History Graph

Daily Weather History Graph

Search for Another Location

Airport:

Trip Planner

Search our weather history database for the weather conditions in past years. The results will help you decide how hot, cold, wet, or windy it might be!

Date:

Astronomy

Nov. 03, 2012 Rise Set
Actual Time 8:16 AM CDT 6:29 PM CDT
Civil Twilight 7:47 AM CDT 6:59 PM CDT
Nautical Twilight 7:13 AM CDT 7:32 PM CDT
Astronomical Twilight 6:41 AM CDT 8:05 PM CDT
Moon 10:10 PM CDT (11/3) 12:24 PM CDT (11/3)
Length of Visible Light 11h 11m
Length of Day
10h 12m
Waning Gibbous, 80% of the Moon is Illuminated
Nov 3
Waning Gibbous
Nov 6
Last Quarter
Nov 13
New
Nov 20
First Quarter
Nov 28
Full

Hourly Weather History & Observations

Time (CDT) Temp. Windchill Dew Point Humidity Pressure Visibility Wind Dir Wind Speed Gust Speed Precip Events Conditions
12:15 AM 29.8 °F 26.3 °F 28.6 °F 95% 30.11 in 7.0 mi SSW 3.5 mph - N/A   Clear
12:35 AM 28.8 °F 25.0 °F 27.7 °F 96% 30.11 in 7.0 mi SW 3.5 mph - N/A   Clear
12:55 AM 27.7 °F - 26.2 °F 94% 30.11 in 7.0 mi Calm Calm - N/A   Clear
1:15 AM 26.8 °F 22.8 °F 25.2 °F 94% 30.11 in 10.0 mi WSW 3.5 mph - N/A   Clear
1:35 AM 30.2 °F 23.4 °F 28.4 °F 93% 30.12 in 10.0 mi West 6.9 mph - N/A   Clear
1:55 AM 29.3 °F 25.6 °F 27.7 °F 94% 30.12 in 10.0 mi WSW 3.5 mph - N/A   Clear
2:15 AM 29.5 °F 23.4 °F 28.2 °F 95% 30.13 in 10.0 mi WSW 5.8 mph - N/A   Clear
2:35 AM 30.7 °F 24.9 °F 29.3 °F 94% 30.13 in 10.0 mi WSW 5.8 mph - N/A   Scattered Clouds
2:55 AM 31.5 °F 26.8 °F 29.7 °F 93% 30.13 in 10.0 mi WSW 4.6 mph - N/A   Scattered Clouds
3:15 AM 31.5 °F 24.9 °F 30.2 °F 95% 30.14 in 10.0 mi SW 6.9 mph - N/A   Scattered Clouds
3:35 AM 32.0 °F 27.5 °F 30.7 °F 95% 30.15 in 10.0 mi WSW 4.6 mph - N/A   Scattered Clouds
3:55 AM 32.9 °F 27.5 °F 31.8 °F 96% 30.15 in 10.0 mi WSW 5.8 mph - N/A   Clear
4:15 AM 32.0 °F 27.5 °F 30.7 °F 95% 30.15 in 10.0 mi West 4.6 mph - N/A   Clear
4:35 AM 32.4 °F 27.9 °F 31.3 °F 96% 30.14 in 10.0 mi West 4.6 mph - N/A   Clear
4:55 AM 32.4 °F 26.0 °F 31.3 °F 96% 30.14 in 10.0 mi West 6.9 mph - N/A   Clear
5:15 AM 33.4 °F 26.6 °F 32.0 °F 94% 30.15 in 10.0 mi West 8.1 mph - N/A   Clear
5:35 AM 34.9 °F 28.3 °F 33.1 °F 93% 30.15 in 10.0 mi West 8.1 mph - N/A   Clear
5:55 AM 34.9 °F 28.3 °F 32.7 °F 92% 30.15 in 10.0 mi WNW 8.1 mph - N/A   Clear
6:15 AM 34.5 °F 28.6 °F 32.7 °F 93% 30.16 in 10.0 mi WNW 6.9 mph - N/A   Clear
6:35 AM 32.9 °F 27.5 °F 32.0 °F 96% 30.16 in 10.0 mi WNW 5.8 mph - N/A   Clear
6:55 AM 32.4 °F 26.9 °F 31.6 °F 97% 30.16 in 10.0 mi West 5.8 mph - N/A   Clear
7:15 AM 32.9 °F 26.7 °F 32.0 °F 96% 30.16 in 10.0 mi WNW 6.9 mph - N/A   Clear
7:35 AM 32.2 °F 26.7 °F 31.5 °F 97% 30.17 in 10.0 mi West 5.8 mph - N/A   Clear
7:55 AM 31.6 °F 26.0 °F 30.6 °F 96% 30.17 in 10.0 mi West 5.8 mph - N/A   Clear
8:15 AM 32.0 °F 26.4 °F 31.1 °F 96% 30.17 in 10.0 mi West 5.8 mph - N/A   Clear
8:35 AM 31.3 °F 25.6 °F 30.4 °F 96% 30.18 in 10.0 mi NW 5.8 mph - N/A   Scattered Clouds
8:55 AM 31.1 °F 26.4 °F 30.2 °F 96% 30.19 in 10.0 mi NW 4.6 mph - N/A   Mostly Cloudy
9:15 AM 33.1 °F 28.7 °F 32.2 °F 96% 30.20 in 10.0 mi WNW 4.6 mph - N/A   Overcast
9:35 AM 35.1 °F 29.3 °F 34.2 °F 97% 30.20 in 1.0 mi NW 6.9 mph - N/A   Overcast
9:55 AM 35.1 °F 27.9 °F 34.5 °F 98% 30.21 in 0.2 mi NNW 9.2 mph - N/A Fog Fog
10:15 AM 35.6 °F 29.2 °F 34.9 °F 97% 30.20 in 0.8 mi NNW 8.1 mph - N/A   Overcast
10:35 AM 35.6 °F 29.2 °F 35.1 °F 98% 30.20 in 0.2 mi NW 8.1 mph - N/A Fog Fog
10:55 AM 36.0 °F 30.3 °F 35.4 °F 98% 30.20 in 0.2 mi NNW 6.9 mph - N/A Fog Fog
11:15 AM 36.3 °F 31.6 °F 35.8 °F 98% 30.20 in 0.5 mi NW 5.8 mph - N/A Fog Fog
11:35 AM 36.7 °F 32.0 °F 36.3 °F 99% 30.21 in 3.0 mi North 5.8 mph - N/A   Overcast
11:55 AM 37.4 °F 34.9 °F 36.7 °F 97% 30.21 in 7.0 mi West 3.5 mph - N/A   Overcast
12:15 PM 38.8 °F 34.6 °F 37.8 °F 96% 30.21 in 10.0 mi North 5.8 mph - N/A   Overcast
12:35 PM 40.6 °F 37.5 °F 37.2 °F 88% 30.20 in 10.0 mi North 4.6 mph - N/A   Overcast
12:55 PM 42.3 °F 40.5 °F 36.5 °F 80% 30.20 in 10.0 mi NNW 3.5 mph - N/A   Scattered Clouds
1:15 PM 44.2 °F - 36.3 °F 74% 30.19 in 10.0 mi Calm Calm - N/A   Clear
1:35 PM 45.1 °F - 36.0 °F 70% 30.19 in 10.0 mi Calm Calm - N/A   Clear
1:55 PM 46.6 °F - 35.4 °F 65% 30.18 in 10.0 mi North 3.5 mph - N/A   Scattered Clouds
2:15 PM 46.8 °F - 35.2 °F 64% 30.17 in 10.0 mi Calm Calm - N/A   Scattered Clouds
2:35 PM 47.3 °F - 34.9 °F 62% 30.17 in 10.0 mi Calm Calm - N/A   Overcast
2:55 PM 47.3 °F - 34.3 °F 61% 30.17 in 10.0 mi Calm Calm - N/A   Mostly Cloudy
3:15 PM 48.9 °F - 35.1 °F 59% 30.16 in 10.0 mi Calm Calm - N/A   Mostly Cloudy
3:35 PM 49.8 °F - 34.9 °F 56% 30.15 in 10.0 mi Calm Calm - N/A   Mostly Cloudy
3:55 PM 50.7 °F - 34.5 °F 54% 30.15 in 10.0 mi Calm Calm - N/A   Scattered Clouds
4:15 PM 50.7 °F - 34.7 °F 54% 30.15 in 10.0 mi Calm Calm - N/A   Clear
4:35 PM 52.0 °F - 35.1 °F 53% 30.14 in 10.0 mi Calm Calm - N/A   Clear
4:55 PM 51.6 °F - 34.9 °F 53% 30.14 in 10.0 mi East 3.5 mph - N/A   Clear
5:15 PM 51.1 °F - 34.7 °F 54% 30.14 in 10.0 mi Calm Calm - N/A   Clear
5:35 PM 49.1 °F - 34.7 °F 58% 30.14 in 10.0 mi East 3.5 mph - N/A   Mostly Cloudy
5:55 PM 48.4 °F - 34.7 °F 59% 30.14 in 10.0 mi East 4.6 mph - N/A   Overcast
6:15 PM 47.3 °F - 35.1 °F 62% 30.14 in 10.0 mi East 4.6 mph - N/A   Mostly Cloudy
6:35 PM 44.1 °F 40.1 °F 34.0 °F 68% 30.14 in 10.0 mi East 6.9 mph - N/A   Scattered Clouds
6:55 PM 43.3 °F 39.9 °F 34.0 °F 70% 30.13 in 10.0 mi East 5.8 mph - N/A   Mostly Cloudy
7:15 PM 42.6 °F 38.4 °F 34.0 °F 71% 30.14 in 10.0 mi East 6.9 mph - N/A   Overcast
7:35 PM 41.5 °F 37.8 °F 34.0 °F 75% 30.14 in 10.0 mi ESE 5.8 mph - N/A   Mostly Cloudy
7:55 PM 41.9 °F 37.5 °F 34.2 °F 74% 30.14 in 10.0 mi ESE 6.9 mph - N/A   Overcast
8:15 PM 42.3 °F 38.6 °F 34.3 °F 74% 30.14 in 10.0 mi ESE 5.8 mph - N/A   Mostly Cloudy
8:35 PM 41.9 °F 39.0 °F 34.7 °F 76% 30.14 in 10.0 mi ESE 4.6 mph - N/A   Mostly Cloudy
8:55 PM 42.3 °F 39.4 °F 34.7 °F 75% 30.14 in 10.0 mi ESE 4.6 mph - N/A   Overcast
9:15 PM 42.4 °F 39.6 °F 34.7 °F 74% 30.15 in 10.0 mi ESE 4.6 mph - N/A   Overcast
9:35 PM 41.0 °F 38.0 °F 33.8 °F 76% 30.15 in 10.0 mi East 4.6 mph - N/A   Mostly Cloudy
9:55 PM 40.3 °F 37.1 °F 33.8 °F 78% 30.15 in 10.0 mi East 4.6 mph - N/A   Mostly Cloudy
10:15 PM 39.6 °F 34.7 °F 33.3 °F 78% 30.15 in 10.0 mi East 6.9 mph - N/A   Mostly Cloudy
10:35 PM 39.7 °F 35.6 °F 33.3 °F 78% 30.15 in 10.0 mi East 5.8 mph - N/A   Mostly Cloudy
10:55 PM 38.5 °F 34.1 °F 32.4 °F 79% 30.15 in 10.0 mi East 5.8 mph - N/A   Mostly Cloudy
11:15 PM 37.6 °F 32.3 °F 32.2 °F 81% 30.15 in 10.0 mi ESE 6.9 mph - N/A   Scattered Clouds
11:35 PM 35.6 °F 30.7 °F 31.3 °F 84% 30.15 in 10.0 mi ESE 5.8 mph - N/A   Clear
11:55 PM 34.7 °F 29.6 °F 30.9 °F 86% 30.14 in 10.0 mi East 5.8 mph - N/A   Clear